Temperature
30 31 32 32 32 32 32 32 32 31 32 31 31 31 30 29 28 28 27 26 25 24 24 23 22 21 21 21 21 21 20 20 20 20 19 19 19 19 19 19 19 19 19 19
31 31 32 32 32 32 32 32 31 31 31 31 31 31 31 30 29 28 27 27 26 25 24 23 22 21 21 21 21 21 20 20 20 20 20 19 19 19 19 19 19 19 19 19
31 32 32 32 32 32 32 32 32 31 31 31 31 31 30 30 28 28 27 26 26 25 24 23 22 22 21 21 21 21 21 20 20 20 19 19 19 19 19 19 19 19 19 19
32 32 31 32 32 32 32 32 31 31 31 31 31 31 31 30 29 28 27 27 26 25 24 23 23 22 21 21 21 21 21 21 20 20 19 19 19 19 19 19 18 18 18 18
32 32 31 31 32 32 32 32 31 31 31 32 31 31 31 30 29 29 28 27 26 25 25 24 23 22 22 21 21 20 20 20 20 20 20 19 19 19 19 18 18 18 18 18
32 32 32 32 32 32 31 31 31 31 32 31 31 31 31 31 30 30 29 27 26 25 24 23 23 22 22 21 21 20 20 21 20 20 19 19 19 19 18 18 18 18 18 18
31 31 32 31 31 31 31 31 31 31 31 31 31 31 31 31 30 29 29 28 26 25 24 23 22 22 21 21 21 20 20 20 20 20 19 19 19 19 18 18 18 18 18 18
30 31 31 31 31 31 32 32 30 30 30 31 31 31 31 30 29 28 28 27 26 25 24 23 22 22 21 21 20 20 20 20 20 20 19 19 19 18 18 18 18 18 17 17
31 31 31 31 31 32 31 32 32 31 31 31 31 31 30 30 29 28 28 27 26 25 24 23 22 22 21 21 20 20 20 19 19 19 19 19 19 18 18 18 18 17 17 17
31 30 31 31 31 31 31 32 31 31 29 30 30 31 31 29 29 28 28 27 26 24 24 23 22 22 21 21 20 20 20 19 19 19 19 19 19 18 18 18 18 18 17 17
31 30 30 30 30 31 30 31 31 31 30 30 30 30 30 29 29 28 28 26 25 24 24 23 22 22 21 20 20 20 20 19 19 19 19 18 18 18 18 18 18 18 17 17
30 31 30 30 31 31 31 31 31 30 29 29 30 29 30 29 29 28 27 26 25 24 24 23 22 21 21 20 20 19 19 19 19 19 18 18 18 18 18 18 17 17 17 17
30 30 29 29 30 30 30 30 30 31 30 30 30 29 29 29 28 27 27 25 24 23 23 22 22 21 20 20 20 19 19 19 19 18 18 18 18 18 18 18 17 17 17 17
28 29 29 29 30 30 29 30 30 30 30 30 30 29 29 29 28 27 26 25 24 23 22 21 21 20 20 19 19 19 19 19 18 18 18 18 18 18 18 17 17 17 17 17
29 29 29 29 30 30 29 29 29 29 29 29 29 29 29 28 27 26 25 24 24 22 22 21 20 20 19 19 19 19 18 18 18 18 18 18 18 17 17 17 17 17 16 16
28 28 28 28 29 29 29 29 29 29 29 29 29 29 28 27 26 25 24 23 23 22 21 21 20 19 19 19 18 18 18 18 18 17 17 17 17 17 17 17 16 16 16 16
28 27 27 28 28 28 28 28 28 28 28 28 28 28 27 26 25 24 23 23 22 21 21 20 20 19 19 18 18 18 18 18 17 17 17 17 17 16 16 16 16 16 16 15
26 26 27 28 27 26 28 28 28 28 28 28 27 27 26 26 25 24 23 22 21 21 20 20 19 19 18 18 18 17 17 17 17 17 17 16 16 16 16 16 16 15 15 15
26 25 27 27 27 27 27 27 27 27 27 27 26 26 25 24 24 24 22 21 21 20 19 19 19 19 18 18 17 17 17 17 16 16 16 16 16 16 16 16 15 15 15 15
25 25 26 26 26 26 27 27 26 26 26 26 25 25 24 24 25 24 21 20 20 19 19 18 18 18 18 17 17 17 17 16 16 16 16 16 16 16 15 15 15 15 14 14
25 24 25 26 26 27 26 26 25 25 25 24 24 24 23 23 23 21 20 19 19 18 18 18 17 17 17 17 16 16 16 15 15 15 15 15 15 15 15 15 15 14 14 14
25 25 25 25 25 26 25 25 25 24 23 23 23 23 23 22 21 20 19 19 18 18 17 17 17 17 16 16 16 15 15 15 15 15 15 15 15 15 15 14 14 14 13 13
25 25 25 25 25 23 23 23 22 22 22 22 22 22 21 21 20 19 19 18 18 17 17 17 17 16 16 16 15 15 15 15 14 14 15 15 14 14 14 14 13 13 13 13
23 22 23 23 24 23 22 22 21 21 21 21 21 20 20 20 19 19 18 17 17 17 17 16 16 16 16 15 15 15 14 14 14 14 14 14 14 14 13 13 13 13 13 13
23 22 22 22 22 22 22 21 21 20 20 20 20 19 19 19 19 18 17 17 17 16 16 16 16 15 15 15 15 15 14 14 14 14 14 14 13 13 13 13 13 12 12 12
22 22 22 22 21 22 21 20 20 20 19 19 19 19 18 18 18 17 17 16 16 16 15 15 15 15 15 15 15 14 14 14 14 13 13 13 13 13 12 12 12 12 12 12
Wind_Speed
7 8 6 4 4 6 6 5 3 1 1 3 2 0 3 5 5 5 5 6 6 5 5 6 6 6 6 6 6 7 7 6 5 4 3 3 2 2 1 1 1 1 2 1
8 8 5 5 5 6 6 6 3 1 1 3 3 1 2 4 5 5 5 6 6 6 6 6 7 7 7 7 7 7 7 6 6 4 3 2 2 2 2 1 1 1 2 2
10 3 2 5 6 6 6 6 4 2 2 4 4 3 4 5 5 5 5 5 6 6 6 7 8 8 8 8 8 7 7 7 6 5 4 3 2 2 2 2 2 1 2 2
8 6 5 7 6 6 6 3 4 4 5 3 4 3 3 5 6 6 6 6 6 6 6 6 7 8 8 8 8 7 7 6 6 6 5 4 3 3 2 2 1 1 1 2
7 6 7 7 5 5 4 2 4 6 7 6 5 6 1 4 3 5 6 7 6 6 6 6 6 7 8 7 7 7 7 6 6 6 6 5 4 3 2 1 1 2 1 1
8 6 6 6 4 4 3 4 5 7 8 7 4 6 2 1 2 2 5 6 6 6 6 5 5 5 6 6 6 6 7 7 6 6 6 5 3 2 2 2 2 2 2 1
10 9 7 6 6 7 8 8 6 7 7 5 2 5 2 2 1 0 3 4 6 6 6 6 5 6 6 6 6 6 6 7 7 7 6 5 4 4 4 3 2 3 2 2
10 10 8 7 8 7 8 10 8 7 7 4 4 4 1 3 2 1 1 3 4 5 6 6 6 6 6 6 6 6 6 5 6 6 6 5 5 4 3 3 3 3 3 2
8 7 5 5 5 7 7 8 8 9 9 9 5 3 3 2 1 2 3 4 4 4 5 6 6 6 5 6 6 6 6 5 5 5 5 5 5 4 3 3 3 2 2 3
8 8 6 5 6 5 7 6 7 8 7 9 7 6 3 2 1 2 3 3 4 4 5 5 5 6 5 5 5 6 6 6 6 6 5 5 5 4 4 3 2 2 2 2
10 9 8 7 8 7 6 7 6 6 7 9 8 3 2 0 0 1 2 2 3 4 4 5 5 5 5 5 6 5 6 5 5 5 4 4 4 3 3 3 3 3 3 3
8 9 8 8 6 5 7 7 8 8 7 8 9 3 3 1 0 1 2 2 2 3 3 4 4 5 5 5 5 5 5 5 5 5 4 4 3 3 3 2 3 3 3 3
5 7 9 9 9 7 7 7 8 9 9 10 11 5 3 2 0 0 1 2 2 2 2 3 3 4 4 4 4 4 4 4 4 5 5 4 3 3 3 2 2 3 3 4
5 8 10 10 6 5 7 8 9 10 10 10 10 8 4 2 1 1 0 1 2 2 2 2 2 3 3 3 3 3 3 3 3 4 4 4 3 3 3 3 3 3 3 4
5 8 8 8 7 7 8 8 8 10 10 11 10 8 5 3 2 1 0 0 1 1 1 2 2 2 3 3 3 3 3 3 3 3 4 4 4 4 3 3 3 3 4 4
3 5 7 8 8 8 8 8 8 9 9 10 10 7 2 2 1 1 1 1 0 0 0 1 1 2 3 3 3 3 3 3 3 3 3 3 3 3 4 4 4 4 4 4
4 5 7 9 8 9 10 8 8 8 7 8 9 4 2 2 2 1 1 1 2 1 1 1 1 2 2 3 3 3 3 3 3 3 4 3 3 3 4 4 4 4 4 5
5 6 6 8 7 11 4 2 5 7 6 5 4 2 2 2 2 1 1 2 2 2 2 1 1 1 2 2 2 3 3 3 4 4 4 4 4 4 4 4 4 4 4 4
6 6 7 8 11 10 5 3 4 6 6 3 3 2 1 1 2 2 3 3 3 2 2 2 1 1 1 2 2 2 3 3 3 4 4 4 4 4 4 4 4 4 4 4
5 7 8 9 11 11 4 4 2 5 7 2 2 1 1 2 5 1 3 3 3 3 2 2 1 1 1 2 2 3 3 3 3 3 3 3 4 4 4 4 4 3 3 4
8 7 10 11 12 8 2 3 4 7 3 2 1 1 2 2 4 3 2 2 2 2 2 2 1 1 1 2 2 3 3 3 3 3 3 3 3 4 3 3 3 3 3 3
8 8 9 10 12 8 3 4 3 1 2 1 0 1 1 1 1 2 2 2 2 2 2 2 1 1 1 1 2 3 3 3 2 3 3 3 3 3 2 3 3 4 4 4
6 6 5 5 3 3 2 1 1 1 0 0 1 1 1 1 0 1 1 1 1 2 2 2 1 1 2 1 2 3 3 3 3 3 3 3 3 3 3 3 4 4 4 4
4 2 4 4 3 2 1 1 1 1 1 1 1 1 2 2 1 1 1 1 1 2 2 2 2 2 2 2 2 3 3 3 3 3 3 3 3 3 2 3 3 3 4 4
4 4 6 7 5 4 4 3 2 1 1 1 1 1 2 2 2 1 1 1 2 2 2 3 3 3 3 3 2 2 2 3 3 4 3 3 3 2 3 3 3 4 4 4
5 6 7 6 3 5 4 3 3 3 3 2 1 1 1 2 2 2 2 2 2 3 3 3 3 3 2 2 2 2 2 2 3 3 3 3 3 2 3 2 2 2 3 2
Wind_Direction
208 229 232 246 273 306 303 297 300 343 328 278 276 306 135 161 175 177 178 179 181 187 179 179 185 185 181 179 181 184 184 180 185 187 192 189 198 219 219 214 221 250 278 274
218 231 250 268 260 269 273 276 273 276 290 275 281 263 150 168 180 183 186 188 184 183 180 183 185 185 186 185 186 185 186 188 192 191 192 200 213 232 218 237 218 262 263 269
235 242 233 246 242 254 262 274 279 276 266 232 259 214 163 169 180 184 189 187 182 182 185 184 189 193 192 192 193 192 190 190 197 195 192 190 197 243 224 213 217 254 264 260
235 242 240 243 244 261 262 280 270 250 251 246 257 274 152 176 189 194 196 194 189 184 186 185 188 194 197 198 193 191 189 190 193 195 203 210 219 237 248 250 243 254 253 262
219 224 234 242 250 255 279 273 252 250 258 263 243 270 150 156 209 209 202 199 193 188 187 184 187 193 195 196 193 189 187 190 191 199 203 213 229 237 246 245 240 266 246 259
239 226 243 251 247 232 217 220 224 235 249 255 257 266 291 168 255 212 192 194 188 183 183 181 177 176 180 183 187 185 182 186 187 196 204 207 218 242 253 250 260 257 253 252
220 218 217 227 228 210 227 245 245 238 236 251 221 256 299 23 34 245 194 183 177 178 182 182 177 173 173 177 181 182 179 184 186 190 195 194 204 218 230 250 251 272 279 279
220 214 205 217 235 239 234 253 264 276 277 272 203 247 285 83 76 81 163 165 165 172 175 178 178 176 177 176 177 175 172 177 180 187 194 199 205 219 225 233 261 261 281 293
231 226 192 205 229 246 237 243 267 269 272 275 254 221 185 142 145 117 126 141 157 166 163 170 174 174 177 181 178 179 175 179 186 193 196 199 205 221 227 222 236 258 265 273
242 239 217 208 211 219 260 254 243 251 267 271 255 243 249 199 169 144 131 132 143 153 157 161 169 173 174 178 180 186 183 183 190 194 199 195 200 207 214 225 232 254 266 276
237 235 220 212 228 232 214 227 250 256 269 274 275 268 37 166 201 167 139 121 128 145 153 159 161 164 170 174 174 178 182 184 190 197 197 201 193 192 199 213 227 235 246 253
227 239 237 226 217 252 239 243 245 251 252 262 277 275 87 97 94 151 143 120 114 125 142 152 153 151 162 171 174 174 180 188 193 192 192 189 194 194 199 211 228 231 236 246
208 233 232 221 205 205 229 236 247 256 256 258 265 253 141 135 17 157 138 124 119 129 133 136 143 150 161 170 169 172 187 194 195 189 191 192 197 201 215 220 229 242 249 255
238 239 250 255 256 233 228 235 243 250 255 260 262 266 244 250 284 280 182 129 140 137 131 137 147 152 159 175 176 177 188 190 193 197 204 200 210 216 220 220 230 240 250 256
232 239 243 255 256 249 245 244 238 244 260 270 276 272 273 299 315 329 339 130 141 126 131 146 164 160 169 178 188 196 197 194 194 204 217 215 221 225 228 230 236 246 257 260
235 241 240 240 237 239 244 246 243 242 254 262 267 266 316 337 341 334 0 332 322 103 106 166 173 180 190 195 199 202 206 203 202 217 222 215 223 228 233 238 244 251 259 269
224 225 242 243 234 242 242 240 241 241 248 261 265 278 293 286 300 287 332 331 329 344 329 267 220 207 215 207 213 217 215 210 211 224 230 222 225 234 240 247 252 259 264 267
232 238 242 248 230 243 243 217 246 246 245 250 263 275 268 290 290 195 33 351 334 337 326 306 270 244 235 215 219 233 222 220 227 228 231 230 231 236 239 244 252 260 266 270
225 229 242 244 242 242 213 209 221 237 241 236 260 261 277 310 223 148 41 355 337 331 324 308 286 264 247 220 216 228 235 233 238 245 248 247 243 241 243 248 256 262 268 270
195 222 240 243 252 255 231 171 207 242 235 206 242 238 231 245 252 68 34 352 345 354 346 331 306 273 221 226 223 229 241 244 253 262 266 264 258 253 252 256 260 263 264 262
205 217 235 244 251 252 142 147 194 234 257 122 230 225 229 264 333 14 1 355 351 360 3 347 321 291 249 235 235 245 255 263 274 279 276 272 265 257 255 259 261 263 268 273
234 234 234 243 248 244 119 175 222 342 49 112 255 260 265 335 12 21 5 356 3 10 6 346 329 302 285 248 240 254 262 278 285 280 274 274 274 270 265 261 263 270 274 268
243 267 264 257 266 64 112 127 42 38 157 204 269 318 301 266 289 8 354 1 12 10 1 330 312 296 301 285 267 267 274 280 280 279 279 273 269 274 279 270 268 267 267 272
223 256 254 250 235 237 205 185 196 247 268 284 286 294 283 279 276 317 336 328 330 335 332 319 311 305 310 307 288 280 276 269 267 275 277 269 263 269 276 278 278 284 287 286
262 238 246 248 249 247 227 218 215 233 241 262 290 311 308 299 287 283 286 303 303 308 310 311 306 305 309 304 291 289 277 265 270 272 271 266 263 269 272 276 291 290 298 299
235 244 253 265 250 257 249 238 245 238 237 240 257 295 298 291 287 284 278 289 303 306 304 302 295 297 304 295 288 292 290 272 265 266 268 264 255 255 260 271 298 328 284 286
Height
1506 1503 1500 1497 1496 1497 1497 1498 1499 1498 1496 1497 1497 1497 1499 1503 1506 1507 1510 1512 1515 1517 1518 1520 1521 1522 1523 1523 1524 1525 1526 1527 1528 1529 1530 1530 1531 1531 1532 1532 1531 1531 1531 1531
1502 1500 1496 1495 1496 1497 1497 1499 1498 1498 1496 1497 1496 1496 1496 1500 1503 1506 1508 1510 1512 1515 1516 1518 1519 1520 1521 1522 1522 1524 1525 1526 1527 1528 1529 1529 1530 1530 1530 1530 1530 1530 1530 1529
1498 1494 1495 1496 1496 1497 1495 1496 1496 1499 1497 1494 1496 1497 1496 1498 1502 1505 1507 1509 1510 1512 1514 1516 1517 1518 1519 1520 1521 1523 1523 1525 1526 1527 1528 1528 1529 1529 1529 1529 1529 1528 1528 1528
1494 1493 1495 1495 1495 1495 1497 1492 1494 1496 1499 1497 1497 1502 1494 1494 1498 1501 1504 1506 1508 1510 1512 1514 1515 1516 1517 1519 1520 1521 1522 1523 1524 1525 1526 1527 1527 1528 1528 1528 1528 1527 1527 1526
1492 1492 1494 1495 1493 1493 1493 1492 1493 1493 1495 1495 1493 1498 1493 1491 1496 1497 1500 1503 1505 1508 1510 1512 1513 1514 1516 1517 1518 1519 1520 1521 1522 1524 1525 1525 1526 1526 1527 1526 1526 1526 1526 1525
1489 1490 1491 1491 1490 1491 1492 1493 1493 1491 1490 1503 1494 1498 1497 1489 1492 1492 1496 1500 1503 1506 1508 1510 1511 1512 1514 1516 1517 1518 1518 1519 1520 1521 1522 1523 1523 1524 1524 1524 1525 1525 1525 1524
1491 1489 1489 1490 1491 1491 1491 1495 1503 1505 1503 1501 1490 1496 1496 1487 1489 1491 1494 1497 1501 1504 1506 1508 1510 1511 1512 1514 1515 1516 1516 1517 1518 1519 1520 1521 1521 1522 1522 1523 1523 1523 1524 1523
1495 1494 1487 1487 1488 1489 1488 1489 1505 1514 1509 1496 1492 1496 1489 1487 1491 1493 1495 1497 1500 1502 1504 1506 1508 1509 1511 1512 1513 1514 1514 1515 1516 1517 1518 1519 1519 1520 1521 1521 1521 1522 1521 1521
1489 1492 1484 1485 1486 1486 1488 1487 1482 1492 1495 1500 1491 1488 1486 1488 1490 1492 1494 1496 1499 1501 1503 1505 1506 1508 1509 1510 1511 1512 1513 1514 1515 1516 1517 1517 1518 1518 1519 1518 1519 1520 1519 1518
1481 1492 1484 1485 1486 1486 1484 1482 1487 1493 1508 1508 1496 1492 1489 1488 1490 1491 1493 1495 1498 1500 1501 1503 1505 1506 1507 1509 1510 1511 1511 1512 1513 1514 1515 1516 1516 1517 1517 1517 1517 1517 1517 1516
1479 1488 1487 1485 1487 1485 1487 1486 1487 1487 1493 1502 1504 1495 1482 1485 1487 1489 1492 1495 1497 1499 1500 1502 1503 1505 1506 1507 1508 1509 1510 1511 1512 1513 1514 1514 1515 1515 1515 1515 1515 1515 1515 1514
1480 1481 1486 1484 1480 1481 1480 1483 1484 1494 1498 1494 1496 1496 1481 1485 1487 1489 1492 1495 1497 1498 1499 1501 1502 1503 1504 1505 1506 1507 1508 1509 1510 1511 1511 1512 1512 1512 1513 1513 1513 1512 1512 1511
1481 1484 1494 1491 1488 1484 1483 1481 1481 1481 1486 1490 1494 1494 1481 1485 1487 1490 1492 1494 1496 1497 1498 1500 1501 1502 1503 1504 1505 1506 1506 1507 1508 1508 1508 1509 1509 1509 1510 1510 1510 1510 1509 1508
1482 1481 1486 1491 1484 1478 1483 1482 1481 1482 1487 1488 1486 1485 1482 1483 1487 1490 1492 1494 1495 1496 1498 1499 1500 1500 1501 1502 1503 1504 1504 1505 1506 1506 1506 1506 1506 1507 1507 1507 1507 1507 1506 1505
1480 1481 1480 1478 1475 1476 1479 1480 1480 1482 1481 1484 1481 1480 1480 1483 1487 1490 1492 1493 1494 1495 1496 1497 1498 1499 1500 1501 1501 1502 1502 1503 1503 1503 1504 1503 1504 1504 1504 1504 1504 1503 1503 1502
1480 1482 1481 1481 1477 1477 1480 1478 1478 1480 1480 1480 1480 1481 1481 1485 1488 1491 1492 1493 1494 1495 1495 1496 1497 1497 1498 1499 1499 1500 1500 1501 1501 1501 1501 1500 1501 1501 1501 1501 1501 1500 1499 1499
1479 1483 1485 1482 1477 1479 1484 1478 1478 1479 1478 1479 1481 1481 1483 1486 1488 1490 1492 1493 1493 1494 1495 1495 1495 1496 1496 1497 1497 1498 1498 1498 1498 1499 1499 1498 1498 1498 1498 1498 1497 1496 1496 1496
1483 1484 1482 1479 1485 1496 1479 1473 1475 1477 1478 1478 1479 1482 1485 1487 1488 1490 1491 1492 1493 1493 1493 1493 1493 1494 1495 1495 1495 1496 1496 1495 1496 1496 1495 1495 1494 1495 1495 1494 1494 1493 1492 1492
1481 1483 1481 1480 1483 1480 1478 1476 1477 1479 1480 1480 1481 1483 1485 1487 1487 1488 1491 1492 1492 1492 1492 1492 1492 1492 1492 1492 1492 1493 1493 1493 1492 1492 1492 1492 1491 1491 1491 1491 1490 1490 1489 1488
1481 1481 1481 1481 1485 1485 1476 1474 1477 1480 1482 1481 1482 1484 1485 1486 1483 1486 1490 1491 1491 1491 1491 1490 1490 1490 1490 1490 1490 1490 1490 1490 1489 1489 1489 1489 1488 1488 1488 1488 1487 1486 1485 1484
1480 1482 1480 1479 1480 1473 1472 1476 1479 1486 1483 1482 1483 1485 1485 1486 1486 1489 1489 1490 1490 1490 1489 1489 1489 1489 1488 1488 1488 1488 1488 1487 1486 1486 1486 1485 1485 1485 1484 1484 1483 1482 1481 1481
1475 1475 1478 1477 1481 1478 1475 1476 1479 1482 1483 1484 1484 1485 1486 1487 1488 1489 1489 1489 1489 1488 1488 1488 1488 1487 1487 1486 1485 1485 1485 1485 1483 1483 1483 1482 1482 1482 1481 1480 1480 1479 1478 1477
1474 1474 1471 1474 1476 1478 1478 1480 1482 1483 1484 1484 1485 1486 1486 1487 1488 1488 1488 1488 1488 1488 1487 1487 1486 1486 1485 1484 1483 1483 1483 1482 1481 1480 1480 1480 1479 1479 1478 1477 1476 1476 1474 1474
1475 1479 1477 1477 1475 1478 1480 1481 1483 1484 1484 1485 1485 1486 1486 1486 1487 1487 1487 1487 1487 1487 1486 1486 1485 1484 1483 1482 1482 1481 1480 1479 1479 1478 1477 1477 1476 1476 1475 1474 1474 1473 1472 1471
1476 1478 1476 1477 1478 1479 1479 1481 1482 1483 1484 1484 1485 1485 1485 1485 1486 1486 1486 1486 1486 1485 1485 1484 1483 1483 1482 1481 1479 1479 1478 1477 1476 1475 1475 1474 1474 1473 1472 1471 1470 1470 1469 1469
1477 1477 1477 1474 1477 1478 1479 1480 1481 1482 1482 1483 1483 1484 1484 1485 1484 1485 1484 1484 1484 1483 1482 1482 1481 1480 1479 1479 1477 1476 1475 1474 1473 1473 1473 1472 1471 1470 1470 1468 1468 1466 1466 1465